Location: Caltech
(34.1382°N, 118.1253°W)
Time: 08:22:19
(UTC-07:00)

PANSAT - Visible Passes

Search period start: 01 July 2016 00:00
Search period end: 11 July 2016 00:00
Orbit: 479 x 486 km, 28.5° (Epoch: 01 July)

Date Brightness Start Highest point End Pass type
(mag) Time Alt. Az. Time Alt. Az. Time Alt. Az.
01 Jul 9.0 04:18:17 21° S 04:18:17 21° S 04:20:44 10° SE visible
02 Jul 10.1 03:51:46 10° SE 03:51:46 10° SE 03:51:48 10° SE visible
04 Jul 9.9 21:22:05 10° S 21:22:08 10° S 21:22:08 10° S visible
05 Jul 9.5 20:53:05 10° S 20:54:46 13° SSE 20:55:44 12° SE visible
06 Jul 9.5 22:01:58 10° SW 22:03:18 18° SW 22:03:18 18° SW visible
07 Jul 8.5 21:33:03 10° SW 21:36:21 28° S 21:36:26 28° SSE visible
08 Jul 8.5 21:04:07 10° SW 21:07:26 29° S 21:09:23 18° SE visible
08 Jul 10.4 22:43:33 10° WSW 22:43:34 10° WSW 22:43:34 10° WSW visible
09 Jul 8.6 20:35:11 10° SW 20:38:31 29° S 20:41:50 10° ESE visible
09 Jul 9.3 22:14:38 10° WSW 22:16:21 22° SW 22:16:21 22° SW visible
10 Jul 8.4 21:45:43 10° WSW 21:49:02 33° S 21:49:02 33° S visible
